NDF9210 EDDB-LFSB

Flight info

Callsign NDF9210
Flight time 1h 17m
Altitude 30000
Route KISUC1B/06L KISUC Z20 MAG Z115 ORTAG DCT BAMKI DCT IBAGA DCT DKB DCT TEDGO T716 DENEL T715 RIGVI DCT
Aircraft A320/M-SDE3FGHIRWY/LB1

Departure

Time 2026-05-07 17:50
Airport Berlin Brandenburg Airport (EDDB)

Arrival

Time 2026-05-07 19:08
Airport EuroAirport Basel–Mulhouse–Freiburg (LFSB)
Time Latitude Longitude Altitude Speed Heading
2026-05-07 17:18 52.36542 13.50498 152 ft 0 kts 68°
2026-05-07 17:38 52.36539 13.50487 153 ft 2 kts 68°
2026-05-07 17:38 52.36534 13.50464 152 ft 2 kts 68°
2026-05-07 17:39 52.36529 13.50441 152 ft 2 kts 68°
2026-05-07 17:39 52.36523 13.50419 152 ft 2 kts 68°
2026-05-07 17:39 52.36518 13.50396 152 ft 2 kts 68°
2026-05-07 17:39 52.36514 13.50381 152 ft 1 kts 69°
2026-05-07 17:40 52.36508 13.50366 152 ft 1 kts 17°
2026-05-07 17:40 52.36498 13.50365 152 ft 0 kts 342°
2026-05-07 17:40 52.36491 13.50370 152 ft 0 kts 338°
2026-05-07 17:43 52.36494 13.50368 152 ft 1 kts 338°
2026-05-07 17:43 52.36507 13.50359 152 ft 2 kts 338°
2026-05-07 17:43 52.36526 13.50329 152 ft 5 kts 310°
2026-05-07 17:44 52.36554 13.50274 151 ft 7 kts 310°
2026-05-07 17:44 52.36593 13.50226 151 ft 0 kts 335°
2026-05-07 17:45 52.36594 13.50226 151 ft 0 kts 335°
2026-05-07 17:45 52.36603 13.50219 151 ft 2 kts 337°
2026-05-07 17:45 52.36624 13.50206 151 ft 4 kts 339°
2026-05-07 17:46 52.36656 13.50186 152 ft 5 kts 337°
2026-05-07 17:46 52.36694 13.50154 152 ft 6 kts 319°
2026-05-07 17:46 52.36737 13.50075 152 ft 10 kts 312°
2026-05-07 17:46 52.36780 13.49980 152 ft 11 kts 276°
2026-05-07 17:47 52.36758 13.49850 151 ft 12 kts 248°
2026-05-07 17:47 52.36724 13.49710 151 ft 13 kts 248°
2026-05-07 17:47 52.36687 13.49557 150 ft 15 kts 248°
2026-05-07 17:47 52.36650 13.49395 150 ft 15 kts 246°
2026-05-07 17:48 52.36610 13.49224 150 ft 16 kts 248°
2026-05-07 17:48 52.36566 13.49047 149 ft 17 kts 247°
2026-05-07 17:48 52.36523 13.48866 148 ft 17 kts 249°
2026-05-07 17:48 52.36479 13.48678 148 ft 17 kts 249°
2026-05-07 17:49 52.36438 13.48484 147 ft 18 kts 263°
2026-05-07 17:49 52.36521 13.48369 147 ft 17 kts 339°
2026-05-07 17:49 52.36636 13.48298 147 ft 17 kts 340°
2026-05-07 17:49 52.36738 13.48370 147 ft 19 kts 66°
2026-05-07 17:50 52.36886 13.48990 151 ft 96 kts 68°
2026-05-07 17:50 52.37211 13.50353 173 ft 156 kts 68°
2026-05-07 17:50 52.37621 13.52046 757 ft 163 kts 68°
2026-05-07 17:50 52.38018 13.53735 1589 ft 161 kts 67°
2026-05-07 17:51 52.38408 13.55425 2340 ft 164 kts 67°
2026-05-07 17:51 52.38837 13.57241 2851 ft 180 kts 66°
2026-05-07 17:51 52.39310 13.59236 3363 ft 198 kts 66°
2026-05-07 17:51 52.39852 13.61381 3820 ft 219 kts 59°
2026-05-07 17:52 52.40964 13.63208 4302 ft 240 kts 28°
2026-05-07 17:52 52.42576 13.64210 4987 ft 255 kts 20°
2026-05-07 17:52 52.44259 13.65177 5881 ft 261 kts 21°
2026-05-07 17:52 52.45961 13.66186 6799 ft 265 kts 21°
2026-05-07 17:53 52.47725 13.67124 7698 ft 271 kts 10°
2026-05-07 17:53 52.49592 13.66803 8546 ft 278 kts 336°
2026-05-07 17:53 52.51070 13.64836 9425 ft 283 kts 306°
2026-05-07 17:53 52.51820 13.61898 10283 ft 288 kts 280°
2026-05-07 17:54 52.51696 13.58562 10894 ft 303 kts 253°
2026-05-07 17:54 52.50785 13.55340 11347 ft 321 kts 244°
2026-05-07 17:54 52.49777 13.51973 11752 ft 339 kts 245°
2026-05-07 17:54 52.48745 13.48418 12257 ft 352 kts 246°
2026-05-07 17:55 52.47712 13.44800 12971 ft 358 kts 246°
2026-05-07 17:55 52.46659 13.41099 13756 ft 361 kts 246°
2026-05-07 17:55 52.45593 13.37344 14523 ft 364 kts 246°
2026-05-07 17:55 52.44533 13.33606 15249 ft 368 kts 245°
2026-05-07 17:56 52.43447 13.29775 15958 ft 372 kts 245°
2026-05-07 17:56 52.42363 13.25960 16625 ft 376 kts 246°
2026-05-07 17:56 52.41254 13.22057 17300 ft 380 kts 246°
2026-05-07 17:56 52.40135 13.18125 17942 ft 384 kts 246°
2026-05-07 17:57 52.39002 13.14150 18569 ft 388 kts 246°
2026-05-07 17:57 52.38247 13.11500 18986 ft 390 kts 246°
2026-05-07 17:57 52.36718 13.06154 19776 ft 395 kts 246°
2026-05-07 17:57 52.35551 13.02079 20373 ft 399 kts 246°
2026-05-07 17:58 52.34373 12.97972 20987 ft 402 kts 246°
2026-05-07 17:58 52.33184 12.93837 21593 ft 405 kts 246°
2026-05-07 17:58 52.31976 12.89639 22197 ft 408 kts 246°
2026-05-07 17:58 52.30781 12.85495 22772 ft 411 kts 246°
2026-05-07 17:59 52.29549 12.81231 23339 ft 414 kts 246°
2026-05-07 17:59 52.28331 12.77023 23862 ft 418 kts 246°
2026-05-07 17:59 52.27081 12.72708 24388 ft 421 kts 246°
2026-05-07 17:59 52.25807 12.68382 24911 ft 425 kts 243°
2026-05-07 18:00 52.24028 12.64520 25347 ft 432 kts 223°
2026-05-07 18:00 52.21644 12.61649 25885 ft 435 kts 214°
2026-05-07 18:00 52.19058 12.59003 26364 ft 439 kts 213°
2026-05-07 18:00 52.16459 12.56365 26808 ft 443 kts 213°
2026-05-07 18:01 52.13861 12.53662 27232 ft 446 kts 214°
2026-05-07 18:01 52.11295 12.50927 27786 ft 446 kts 214°
2026-05-07 18:01 52.08718 12.48137 28452 ft 443 kts 214°
2026-05-07 18:01 52.06176 12.45360 29027 ft 441 kts 214°
2026-05-07 18:02 52.01092 12.39776 29781 ft 446 kts 214°
2026-05-07 18:02 51.98511 12.36937 30061 ft 448 kts 214°
2026-05-07 18:03 51.93335 12.31250 30063 ft 448 kts 214°
2026-05-07 18:03 51.88179 12.25597 30067 ft 448 kts 214°
2026-05-07 18:04 51.82988 12.19919 30067 ft 447 kts 214°
2026-05-07 18:04 51.77828 12.14291 30068 ft 447 kts 214°
2026-05-07 18:05 51.72681 12.08691 30069 ft 446 kts 214°
2026-05-07 18:05 51.67545 12.03118 30070 ft 446 kts 214°
2026-05-07 18:06 51.62427 11.97582 30069 ft 446 kts 214°
2026-05-07 18:06 51.57302 11.92053 30070 ft 445 kts 214°
2026-05-07 18:07 51.52134 11.86493 30069 ft 445 kts 214°
2026-05-07 18:07 51.47015 11.81002 30067 ft 445 kts 214°
2026-05-07 18:08 51.41878 11.75504 30065 ft 446 kts 214°
2026-05-07 18:08 51.36729 11.70010 30063 ft 446 kts 214°
2026-05-07 18:09 51.31549 11.64520 30061 ft 445 kts 213°
2026-05-07 18:09 51.25974 11.60232 30063 ft 445 kts 204°
2026-05-07 18:10 51.20285 11.56358 30063 ft 444 kts 205°
2026-05-07 18:10 51.14639 11.52430 30062 ft 444 kts 205°
2026-05-07 18:11 51.08997 11.48457 30060 ft 443 kts 205°
2026-05-07 18:11 51.03381 11.44492 30058 ft 444 kts 205°
2026-05-07 18:12 50.97755 11.40521 30054 ft 444 kts 205°
2026-05-07 18:12 50.92099 11.36539 30051 ft 444 kts 205°
2026-05-07 18:13 50.86454 11.32577 30049 ft 444 kts 205°
2026-05-07 18:13 50.80804 11.28620 30044 ft 444 kts 205°
2026-05-07 18:14 50.75126 11.24654 30039 ft 443 kts 205°
2026-05-07 18:14 50.69526 11.20753 30035 ft 442 kts 205°
2026-05-07 18:15 50.63865 11.16820 30027 ft 443 kts 205°
2026-05-07 18:15 50.58231 11.12915 30020 ft 444 kts 205°
2026-05-07 18:16 50.52600 11.09022 30017 ft 444 kts 205°
2026-05-07 18:16 50.46949 11.05126 30016 ft 444 kts 205°
2026-05-07 18:17 50.41297 11.01240 30020 ft 444 kts 205°
2026-05-07 18:17 50.35634 10.97356 30024 ft 443 kts 205°
2026-05-07 18:18 50.29977 10.93487 30027 ft 444 kts 205°
2026-05-07 18:18 50.24320 10.89627 30028 ft 445 kts 205°
2026-05-07 18:19 50.18640 10.85760 30030 ft 445 kts 205°
2026-05-07 18:19 50.12971 10.81912 30032 ft 445 kts 205°
2026-05-07 18:20 50.07333 10.78097 30030 ft 445 kts 205°
2026-05-07 18:20 50.01638 10.74252 30027 ft 445 kts 205°
2026-05-07 18:21 49.96292 10.69668 30022 ft 441 kts 224°
2026-05-07 18:21 49.92298 10.62518 30031 ft 438 kts 233°
2026-05-07 18:22 49.88429 10.55189 30033 ft 437 kts 232°
2026-05-07 18:22 49.84549 10.47954 30032 ft 437 kts 232°
2026-05-07 18:23 49.80606 10.40673 30034 ft 436 kts 232°
2026-05-07 18:23 49.76685 10.33475 30039 ft 435 kts 231°
2026-05-07 18:24 49.72780 10.26327 30042 ft 435 kts 231°
2026-05-07 18:24 49.68858 10.19169 30046 ft 435 kts 231°
2026-05-07 18:25 49.64956 10.12073 30042 ft 435 kts 231°
2026-05-07 18:25 49.61043 10.04972 30045 ft 435 kts 231°
2026-05-07 18:26 49.57122 9.97879 30046 ft 434 kts 231°
2026-05-07 18:26 49.53193 9.90789 30040 ft 434 kts 231°
2026-05-07 18:27 49.49259 9.83712 30046 ft 434 kts 231°
2026-05-07 18:27 49.45347 9.76692 30047 ft 433 kts 231°
2026-05-07 18:28 49.41424 9.69669 30054 ft 433 kts 231°
2026-05-07 18:28 49.37503 9.62667 30051 ft 433 kts 231°
2026-05-07 18:29 49.33588 9.55698 30047 ft 433 kts 231°
2026-05-07 18:29 49.29663 9.48727 30046 ft 433 kts 231°
2026-05-07 18:30 49.25727 9.41757 30042 ft 433 kts 231°
2026-05-07 18:30 49.21854 9.34914 30047 ft 433 kts 230°
2026-05-07 18:31 49.17872 9.27903 30045 ft 433 kts 231°
2026-05-07 18:31 49.13936 9.20988 30046 ft 432 kts 231°
2026-05-07 18:32 49.09979 9.14055 30044 ft 432 kts 231°
2026-05-07 18:32 49.06037 9.07163 30047 ft 432 kts 231°
2026-05-07 18:33 49.02091 9.00284 29904 ft 433 kts 231°
2026-05-07 18:33 49.00105 8.96820 29301 ft 430 kts 231°
2026-05-07 18:33 48.98155 8.93423 28699 ft 426 kts 231°
2026-05-07 18:33 48.96202 8.90024 28100 ft 423 kts 231°
2026-05-07 18:34 48.94265 8.86659 27498 ft 423 kts 231°
2026-05-07 18:34 48.92343 8.83330 26905 ft 423 kts 231°
2026-05-07 18:34 48.90420 8.80002 26311 ft 418 kts 231°
2026-05-07 18:34 48.88634 8.76918 25757 ft 414 kts 231°
2026-05-07 18:35 48.86986 8.74076 25232 ft 410 kts 231°
2026-05-07 18:35 48.85205 8.71006 24663 ft 406 kts 231°
2026-05-07 18:35 48.83327 8.67773 24058 ft 402 kts 230°
2026-05-07 18:35 48.81482 8.64601 23464 ft 399 kts 230°
2026-05-07 18:36 48.79671 8.61490 22877 ft 395 kts 230°
2026-05-07 18:36 48.77855 8.58374 22284 ft 392 kts 230°
2026-05-07 18:36 48.76060 8.55303 21700 ft 388 kts 230°
2026-05-07 18:36 48.74271 8.52265 21115 ft 385 kts 230°
2026-05-07 18:37 48.72500 8.49263 20530 ft 382 kts 230°
2026-05-07 18:37 48.70737 8.46274 19948 ft 378 kts 230°
2026-05-07 18:37 48.68989 8.43314 19368 ft 375 kts 230°
2026-05-07 18:37 48.67270 8.40400 18800 ft 372 kts 230°
2026-05-07 18:38 48.65550 8.37487 18229 ft 369 kts 230°
2026-05-07 18:38 48.63908 8.34711 17690 ft 367 kts 229°
2026-05-07 18:38 48.62143 8.31729 17108 ft 364 kts 229°
2026-05-07 18:38 48.60611 8.29141 16690 ft 360 kts 229°
2026-05-07 18:39 48.58846 8.26166 16421 ft 359 kts 229°
2026-05-07 18:39 48.57184 8.23366 16162 ft 358 kts 229°
2026-05-07 18:39 48.55514 8.20555 15905 ft 357 kts 229°
2026-05-07 18:39 48.53857 8.17771 15650 ft 356 kts 229°
2026-05-07 18:40 48.52200 8.14988 15389 ft 354 kts 229°
2026-05-07 18:40 48.50574 8.12259 15146 ft 353 kts 229°
2026-05-07 18:40 48.48917 8.09483 14884 ft 352 kts 228°
2026-05-07 18:40 48.47284 8.06750 14632 ft 352 kts 228°
2026-05-07 18:41 48.45643 8.04007 14380 ft 351 kts 228°
2026-05-07 18:41 48.44013 8.01285 14128 ft 350 kts 229°
2026-05-07 18:41 48.42375 7.98552 13874 ft 348 kts 229°
2026-05-07 18:41 48.40757 7.95854 13624 ft 347 kts 229°
2026-05-07 18:42 48.39142 7.93164 13372 ft 346 kts 228°
2026-05-07 18:42 48.37545 7.90506 13123 ft 345 kts 228°
2026-05-07 18:42 48.35929 7.87821 12871 ft 343 kts 228°
2026-05-07 18:42 48.34340 7.85182 12622 ft 342 kts 228°
2026-05-07 18:43 48.32743 7.82534 12371 ft 341 kts 228°
2026-05-07 18:43 48.31158 7.79908 12121 ft 339 kts 228°
2026-05-07 18:43 48.29571 7.77282 11870 ft 337 kts 228°
2026-05-07 18:43 48.28009 7.74699 11621 ft 335 kts 228°
2026-05-07 18:44 48.26430 7.72089 11368 ft 334 kts 228°
2026-05-07 18:44 48.24870 7.69515 11113 ft 333 kts 228°
2026-05-07 18:44 48.23324 7.66966 10865 ft 331 kts 228°
2026-05-07 18:44 48.21775 7.64413 10575 ft 325 kts 228°
2026-05-07 18:45 48.20282 7.61954 10233 ft 318 kts 228°
2026-05-07 18:45 48.18811 7.59537 9924 ft 310 kts 228°
2026-05-07 18:45 48.17385 7.57195 9776 ft 297 kts 228°
2026-05-07 18:45 48.16005 7.54929 9644 ft 285 kts 228°
2026-05-07 18:46 48.14687 7.52813 9524 ft 276 kts 226°
2026-05-07 18:46 48.13325 7.50796 9398 ft 276 kts 224°
2026-05-07 18:46 48.11903 7.48862 9272 ft 276 kts 221°
2026-05-07 18:46 48.10437 7.47038 9145 ft 276 kts 219°
2026-05-07 18:47 48.08917 7.45221 9019 ft 276 kts 219°
2026-05-07 18:47 48.07422 7.43427 8894 ft 275 kts 219°
2026-05-07 18:47 48.05950 7.41659 8770 ft 274 kts 219°
2026-05-07 18:47 48.04450 7.39860 8644 ft 274 kts 219°
2026-05-07 18:48 48.02963 7.38080 8519 ft 274 kts 219°
2026-05-07 18:48 48.01463 7.36286 8391 ft 274 kts 219°
2026-05-07 18:48 47.99976 7.34510 8266 ft 274 kts 218°
2026-05-07 18:48 47.98609 7.32880 8154 ft 273 kts 218°
2026-05-07 18:49 47.97057 7.31034 8024 ft 273 kts 217°
2026-05-07 18:49 47.95429 7.29614 7894 ft 273 kts 202°
2026-05-07 18:49 47.93569 7.28871 7769 ft 273 kts 187°
2026-05-07 18:49 47.91662 7.28859 7641 ft 274 kts 173°
2026-05-07 18:50 47.89838 7.29286 7522 ft 274 kts 170°
2026-05-07 18:50 47.87906 7.29807 7390 ft 273 kts 170°
2026-05-07 18:50 47.86224 7.30265 7278 ft 272 kts 170°
2026-05-07 18:50 47.84446 7.30741 7158 ft 272 kts 170°
2026-05-07 18:51 47.82575 7.31235 7029 ft 271 kts 170°
2026-05-07 18:51 47.80763 7.31708 6973 ft 260 kts 170°
2026-05-07 18:51 47.79022 7.32160 6965 ft 244 kts 170°
2026-05-07 18:51 47.77389 7.32582 6967 ft 238 kts 170°
2026-05-07 18:52 47.75764 7.33002 6969 ft 238 kts 170°
2026-05-07 18:52 47.74119 7.33426 6974 ft 238 kts 170°
2026-05-07 18:52 47.72489 7.33846 6976 ft 238 kts 170°
2026-05-07 18:52 47.70861 7.34264 6974 ft 238 kts 170°
2026-05-07 18:53 47.69237 7.34680 6972 ft 238 kts 170°
2026-05-07 18:53 47.67585 7.35104 6975 ft 238 kts 170°
2026-05-07 18:53 47.65944 7.35526 6975 ft 239 kts 170°
2026-05-07 18:53 47.64332 7.36036 6973 ft 239 kts 164°
2026-05-07 18:54 47.62760 7.36850 6974 ft 239 kts 156°
2026-05-07 18:54 47.61251 7.37869 6976 ft 239 kts 155°
2026-05-07 18:54 47.59737 7.38926 6973 ft 239 kts 154°
2026-05-07 18:54 47.58228 7.39982 6971 ft 239 kts 154°
2026-05-07 18:55 47.56717 7.41037 6974 ft 240 kts 154°
2026-05-07 18:55 47.55207 7.42088 6976 ft 239 kts 154°
2026-05-07 18:55 47.53688 7.43141 6975 ft 240 kts 154°
2026-05-07 18:55 47.52192 7.44180 6974 ft 240 kts 154°
2026-05-07 18:56 47.50657 7.45244 6975 ft 239 kts 155°
2026-05-07 18:56 47.49142 7.46292 6975 ft 240 kts 155°
2026-05-07 18:56 47.47635 7.47333 6977 ft 240 kts 155°
2026-05-07 18:56 47.46112 7.48384 6976 ft 240 kts 155°
2026-05-07 18:57 47.44614 7.49417 6978 ft 239 kts 155°
2026-05-07 18:57 47.43092 7.50467 6979 ft 240 kts 155°
2026-05-07 18:57 47.41588 7.51503 6976 ft 239 kts 155°
2026-05-07 18:57 47.40070 7.52549 6973 ft 239 kts 154°
2026-05-07 18:58 47.38555 7.53591 6971 ft 239 kts 154°
2026-05-07 18:58 47.37053 7.54624 6972 ft 239 kts 154°
2026-05-07 18:58 47.35543 7.55662 6972 ft 239 kts 154°
2026-05-07 18:58 47.34027 7.56705 6969 ft 239 kts 154°
2026-05-07 18:59 47.32515 7.57744 6971 ft 239 kts 154°
2026-05-07 18:59 47.31032 7.58783 6961 ft 232 kts 149°
2026-05-07 18:59 47.29920 7.60411 6945 ft 226 kts 112°
2026-05-07 18:59 47.29757 7.62629 6854 ft 218 kts 76°
2026-05-07 19:00 47.30338 7.64629 6736 ft 210 kts 63°
2026-05-07 19:00 47.30998 7.66517 6609 ft 208 kts 64°
2026-05-07 19:00 47.31603 7.68283 6492 ft 207 kts 60°
2026-05-07 19:00 47.32649 7.69744 6348 ft 209 kts 24°
2026-05-07 19:01 47.34069 7.70022 6220 ft 211 kts 349°
2026-05-07 19:01 47.35446 7.69355 6173 ft 208 kts 337°
2026-05-07 19:01 47.36742 7.68477 6166 ft 205 kts 335°
2026-05-07 19:01 47.38031 7.67554 6119 ft 205 kts 335°
2026-05-07 19:02 47.39303 7.66641 5971 ft 204 kts 335°
2026-05-07 19:02 47.40553 7.65754 5633 ft 196 kts 336°
2026-05-07 19:02 47.41771 7.64897 5298 ft 188 kts 336°
2026-05-07 19:02 47.42910 7.64101 5015 ft 178 kts 336°
2026-05-07 19:03 47.44004 7.63340 4719 ft 171 kts 336°
2026-05-07 19:03 47.45050 7.62613 4442 ft 162 kts 336°
2026-05-07 19:03 47.46006 7.61948 4201 ft 152 kts 337°
2026-05-07 19:03 47.46934 7.61303 3958 ft 141 kts 337°
2026-05-07 19:04 47.47821 7.60686 3758 ft 140 kts 338°
2026-05-07 19:04 47.48690 7.60082 3562 ft 139 kts 338°
2026-05-07 19:04 47.49570 7.59456 3360 ft 138 kts 337°
2026-05-07 19:04 47.50435 7.58862 3169 ft 138 kts 339°
2026-05-07 19:05 47.51313 7.58286 2964 ft 137 kts 339°
2026-05-07 19:05 47.52171 7.57706 2743 ft 136 kts 336°
2026-05-07 19:05 47.53020 7.57092 2501 ft 135 kts 336°
2026-05-07 19:05 47.53861 7.56501 2283 ft 133 kts 337°
2026-05-07 19:06 47.54696 7.55941 2100 ft 132 kts 336°
2026-05-07 19:06 47.56345 7.54760 1691 ft 129 kts 335°
2026-05-07 19:06 47.57146 7.54191 1488 ft 129 kts 336°
2026-05-07 19:07 47.57957 7.53631 1293 ft 128 kts 336°
2026-05-07 19:07 47.58779 7.53064 1089 ft 128 kts 336°
2026-05-07 19:07 47.59583 7.52502 916 ft 127 kts 336°
2026-05-07 19:07 47.60313 7.51997 883 ft 95 kts 335°
2026-05-07 19:08 47.60819 7.51645 877 ft 62 kts 334°
2026-05-07 19:08 47.61018 7.51535 874 ft 19 kts 18°
2026-05-07 19:08 47.61069 7.51640 873 ft 0 kts 67°
2026-05-07 19:08 47.61070 7.51643 873 ft 1 kts 67°
2026-05-07 19:09 47.61077 7.51668 874 ft 4 kts 69°
2026-05-07 19:09 47.61084 7.51724 874 ft 7 kts 98°
2026-05-07 19:09 47.61044 7.51788 874 ft 10 kts 153°
2026-05-07 19:09 47.60990 7.51826 875 ft 7 kts 156°
2026-05-07 19:10 47.60931 7.51866 876 ft 11 kts 155°
2026-05-07 19:10 47.60840 7.51929 877 ft 17 kts 154°
2026-05-07 19:10 47.60733 7.52002 879 ft 16 kts 155°
2026-05-07 19:10 47.60628 7.52076 880 ft 16 kts 154°
2026-05-07 19:11 47.60527 7.52149 881 ft 16 kts 155°
2026-05-07 19:11 47.60426 7.52220 882 ft 16 kts 155°
2026-05-07 19:11 47.60325 7.52289 883 ft 16 kts 155°
2026-05-07 19:11 47.60223 7.52360 884 ft 16 kts 155°
2026-05-07 19:12 47.60120 7.52428 884 ft 16 kts 155°
2026-05-07 19:12 47.60019 7.52500 885 ft 16 kts 155°
2026-05-07 19:12 47.59916 7.52573 885 ft 16 kts 154°
2026-05-07 19:12 47.59816 7.52648 886 ft 16 kts 153°
2026-05-07 19:13 47.59713 7.52720 887 ft 16 kts 156°
2026-05-07 19:13 47.59621 7.52795 887 ft 14 kts 124°
2026-05-07 19:13 47.59639 7.52914 887 ft 9 kts 64°
2026-05-07 19:13 47.59672 7.53010 885 ft 7 kts 63°
2026-05-07 19:14 47.59696 7.53072 884 ft 3 kts 49°
2026-05-07 19:14 47.59713 7.53095 883 ft 5 kts 38°
2026-05-07 19:14 47.59740 7.53149 883 ft 6 kts 64°
2026-05-07 19:14 47.59750 7.53181 882 ft 3 kts 66°
2026-05-07 19:15 47.59754 7.53193 882 ft 0 kts 65°